Regional Weather Roundup
Issued by NWS

Home | Current Version | Previous Version | Graphics & Text | Print | Product List | Glossary On
Versions: 1 2 3 4 5 6 7 8 9 10 11 12 13 14 15 16 17 18 19 20 21 22 23 24 25 26 27 28 29 30 31 32 33 34 35 36 37 38 39 40 41 42 43 44 45 46 47 48 49 50
000
ASUS43 KDMX 261201
RWRIA

WEATHER ROUNDUP FOR IOWA
NATIONAL WEATHER SERVICE DES MOINES IA
700 AM CDT THU APR 26 2018

NOTE: "FAIR" INDICATES FEW OR NO CLOUDS BELOW 12,000 FEET WITH NO
SIGNIFICANT WEATHER AND/OR OBSTRUCTIONS TO VISIBILITY.

* - THESE STATIONS ARE NOT NWS STATIONS...THUS NOT UNDER NWS
QUALITY CONTROL.  THEY ALSO DO NOT REPORT WEATHER SUCH
AS PRECIPITATION OR FOG.

IAZ001>003-012>014-020>022-031>034-043>046-261300-
   NORTHWEST IOWA

CITY           SKY/WX    TMP DP  RH WIND       PRES   REMARKS
CARROLL *      CLOUDY    37  30  75 CALM      29.95S
CHEROKEE *     CLOUDY    35  33  92 S3        29.94R
DENISON *      CLOUDY    34  30  86 SE3       29.96F
LE MARS *      CLOUDY    39  34  81 S7        29.92R WCI  34
ORANGE CITY *  CLOUDY    41  37  87 SW9       29.91S
SHELDON *      CLOUDY    41  34  75 SW10      29.88F
SIOUX CITY     CLOUDY    43  33  68 SW8       29.94R
6HR MIN TEMP:  41; 6HR MAX TEMP:  47;

SPENCER        CLOUDY    38  31  76 SW7       29.91R WCI  33
6HR MIN TEMP:  35; 6HR MAX TEMP:  41;

STORM LAKE *   CLOUDY    37  32  81 SW9       29.92S WCI  31
$$

IAZ055>058-069>071-079>083-090>094-261300-
   SOUTHWEST IOWA

CITY           SKY/WX    TMP DP  RH WIND       PRES   REMARKS
ATLANTIC *     PTCLDY    32  32 100 CALM      29.97S
AUDUBON *      CLOUDY    28  27  93 CALM      29.97S
CLARINDA *     CLOUDY    30  30 100 CALM      30.01R
COUNCIL BLFS * PTCLDY    41  37  87 SW6       29.96F
CRESTON *      CLOUDY    37  34  87 W7        29.98R WCI  32
HARLAN  *      CLOUDY    34  34 100 CALM      30.00S
LAMONI         CLOUDY    39  33  79 NW7       29.96R WCI  34
6HR MIN TEMP:  37; 6HR MAX TEMP:  42;

RED OAK *      FOG       30  30 100 CALM      29.99R VSB 3/4
SHENANDOAH *   CLOUDY    32  32 100 CALM      30.00R
$$

IAZ047>049-059>061-072>074-084-261300-
   CENTRAL IOWA

CITY           SKY/WX    TMP DP  RH WIND       PRES   REMARKS
AMES           CLOUDY    37  32  82 CALM      29.95R
6HR MIN TEMP:  33; 6HR MAX TEMP:  42;

ANKENY *       PTCLDY    36  32  87 CALM      29.97R
BOONE *        CLOUDY    41  34  75 W6        29.94S
CHARITON *     CLOUDY    39  34  81 W6        29.95S WCI  35
DES MOINES     CLOUDY    41  34  76 W3        29.96R
6HR MIN TEMP:  39; 6HR MAX TEMP:  51;

GRINNELL*      CLOUDY    37  30  76 CALM      29.96R
KNOXVILLE *    CLOUDY    37  30  75 W6        29.94R WCI  33
MARSHALLTOWN   CLOUDY    34  31  88 CALM      29.94R
6HR MIN TEMP:  34; 6HR MAX TEMP:  41;

NEWTON *       CLOUDY    41  32  70 CALM      29.95S
PELLA *        CLOUDY    40  30  68 CALM      29.96S
$$

IAZ004>006-015-016-023>025-035-036-261300-
   NORTH CENTRAL IOWA

CITY           SKY/WX    TMP DP  RH WIND       PRES   REMARKS
ALGONA *       CLOUDY    39  34  81 SW9       29.92R WCI  33
CLARION *      CLOUDY    37  32  81 S6        29.94R WCI  33
ESTHERVILLE    CLOUDY    40  32  73 SW12      29.90R WCI  33
6HR MIN TEMP:  37; 6HR MAX TEMP:  41;

FORT DODGE *   CLOUDY    38  33  82 SW3       29.94S
MASON CITY     CLOUDY    39  33  79 SW7       29.93S WCI  34
6HR MIN TEMP:  35; 6HR MAX TEMP:  41;

FOREST CITY *  FAIR      37  36  93 SW6       29.92S WCI  33
WEBSTER CITY * CLOUDY    37  34  87 S8        29.92S WCI  31
IOWA FALLS *   FAIR      38  34  85 S3        29.94S
$$

IAZ007>011-017>019-026>030-037>042-050>054-066-261300-
   NORTHEAST IOWA

CITY           SKY/WX    TMP DP  RH WIND       PRES   REMARKS
CEDAR RAPIDS   FAIR      40  30  67 CALM      29.93S
6HR MIN TEMP:  36; 6HR MAX TEMP:  43;

CHARLES CITY * FAIR      39  39 100 S3        29.93S
CLINTON *      FAIR      38  32  79 SE5       29.97R WCI  34
DECORAH *      FAIR      37  32  81 CALM      29.92S
DUBUQUE        FAIR      37  31  78 S6        29.94S WCI  32
6HR MIN TEMP:  35; 6HR MAX TEMP:  46;

MONTICELLO *   FAIR      32  30  93 CALM      29.95R
OELWEIN *      FAIR      39  37  93 W5        29.94S
WATERLOO       FAIR      33  31  92 CALM      29.94R
6HR MIN TEMP:  31; 6HR MAX TEMP:  38;

$$

IAZ064-065-067-068-078-261300-
   EAST CENTRAL IOWA

CITY           SKY/WX    TMP DP  RH WIND       PRES   REMARKS
DAVENPORT      FAIR      37  32  82 SE6       29.97R WCI  32
6HR MIN TEMP:  34; 6HR MAX TEMP:  44;

IOWA CITY      FAIR      38  31  76 CALM      29.97R
6HR MIN TEMP:  36; 6HR MAX TEMP:  43;

MT. PLEASANT * CLOUDY    34  30  86 CALM      29.95R
MUSCATINE *    FAIR      37  32  81 CALM      29.96R
QUAD CITIES    FAIR      36  31  82 E5        29.96R WCI  32
6HR MIN TEMP:  32; 6HR MAX TEMP:  42;

$$

IAZ062-063-075>077-085>089-095>099-261300-
   SOUTHEAST IOWA

CITY           SKY/WX    TMP DP  RH WIND       PRES   REMARKS
BURLINGTON     CLEAR     41  33  73 SE3       29.95R
6HR MIN TEMP:  38; 6HR MAX TEMP:  48;

FAIRFIELD *    CLOUDY    36  28  75 CALM      29.95R
FORT MADISON * CLEAR     43  39  87 CALM      29.96R
KEOKUK *       CLEAR     39  36  87 CALM      29.95R
OSKALOOSA *    FAIR      37  29  73 NW3       29.96R
CENTERVILLE *  FAIR      37  37 100 W7        29.97R WCI  32
OTTUMWA        CLOUDY    35  30  82 W6        29.95R WCI  30
6HR MIN TEMP:  33; 6HR MAX TEMP:  46;

WASHINGTON *   CLOUDY    37  30  75 CALM      29.96R
$$

ABBREVIATIONS USED IN REMARKS
   TC - TEMPERATURES IN CELSIUS
  WCI - WIND CHILL INDEX
   HX - HEAT INDEX
  VSB - VISIBILITY
$$




USA.gov is the U.S. government's official web portal to all federal, state and local government web resources and services.